Dewpoint
30 31 31 32 33 32 33 33 34 34 34 33 33 32 32 32 31 29 30 32 34 35 34 33 35 35 37 39 40 42 43 42 43 42 44 46 46 47 47 47 47 47 48 48 48 48 48 48 47 47 46 43
28 30 31 32 31 30 31 31 32 32 32 31 31 30 30 29 28 27 27 29 30 32 32 31 32 33 36 37 38 40 41 39 40 41 41 44 45 46 45 45 46 46 46 47 47 47 47 46 46 45 45 42
23 28 31 31 29 29 29 30 30 31 30 30 28 29 28 28 27 26 26 27 27 29 30 28 29 31 34 35 37 37 39 37 38 40 42 42 42 44 44 44 44 44 45 46 46 45 45 45 44 44 43 42
20 24 29 28 27 27 28 28 29 29 28 28 26 27 27 26 23 22 20 25 20 26 27 24 24 28 32 33 35 34 36 34 35 37 40 40 41 41 42 42 41 42 43 44 44 44 43 43 42 40 40 41
21 22 26 21 23 25 25 26 27 26 24 24 22 23 23 22 15 17 16 17 16 23 21 23 23 25 28 31 31 31 32 31 32 35 35 36 39 38 38 38 37 38 40 42 42 42 41 41 38 38 39 40
22 23 21 19 19 19 19 22 23 19 20 21 19 21 17 14 12 13 15 16 20 17 18 19 21 22 25 27 27 28 28 28 28 31 32 32 34 33 33 33 32 33 35 37 39 39 39 36 37 36 37 39
21 18 15 16 18 20 20 21 21 19 18 17 18 17 15 13 10 14 16 14 20 23 23 20 20 21 23 24 24 24 24 24 24 27 27 28 30 29 30 30 31 31 33 33 35 35 34 34 35 35 35 37
15 17 12 13 16 16 15 18 18 17 18 18 18 18 14 11 15 18 14 18 20 20 17 17 18 19 21 20 20 21 19 19 20 23 23 25 26 23 23 24 25 27 30 31 31 32 33 33 33 33 34 36
14 17 12 13 13 16 13 17 15 13 15 17 19 18 14 16 17 18 14 16 15 15 15 17 17 17 16 16 18 18 18 15 17 17 18 17 18 18 21 21 21 23 26 27 27 28 30 31 32 33 33 35
13 18 11 11 10 12 12 19 15 12 14 14 16 17 17 15 16 16 15 17 17 17 15 15 14 15 15 15 17 15 14 13 14 14 14 15 15 15 16 19 19 21 24 25 24 26 27 29 30 31 33 33
14 12 13 12 14 16 10 15 15 11 11 12 15 17 17 14 12 14 14 15 17 17 17 15 14 13 14 15 14 13 12 15 14 12 13 13 14 13 14 17 18 19 22 22 24 25 26 27 28 29 31 32
11 13 14 15 17 16 13 17 13 10 11 16 12 15 13 14 12 11 13 15 14 16 17 16 17 16 14 14 12 13 12 13 12 10 11 13 13 11 12 13 16 16 18 19 22 23 25 26 26 27 29 31
12 11 14 15 14 13 15 15 12 11 14 12 10 11 15 15 11 10 14 14 13 13 16 17 17 15 14 15 12 13 11 12 12 11 10 11 12 12 12 12 13 14 14 16 18 20 22 25 25 26 27 29
13 12 14 16 15 12 15 12 13 16 11 9 9 9 12 14 12 11 12 14 12 13 16 16 17 17 16 13 12 11 12 11 11 10 10 11 12 10 12 10 12 12 13 13 15 18 20 22 23 24 25 27
9 10 10 13 14 14 13 13 14 12 10 9 9 10 13 15 13 11 12 14 13 11 13 14 16 15 14 12 12 11 12 12 13 12 10 12 11 10 11 10 10 11 12 13 13 15 18 19 19 21 24 24
13 11 11 14 14 12 13 15 12 10 10 11 8 11 14 14 11 12 11 16 15 13 13 13 12 13 13 12 11 12 12 12 13 12 13 14 14 14 13 10 11 11 11 12 11 12 14 16 17 19 21 23
10 13 12 13 14 12 16 13 12 10 10 10 10 11 12 13 12 11 10 12 15 15 11 12 13 12 13 12 11 12 14 16 13 11 11 13 13 13 12 11 12 14 11 11 11 11 11 12 14 17 19 20
6 11 13 12 11 12 13 10 8 10 10 9 8 9 10 12 12 11 8 11 14 13 10 12 13 12 11 10 13 12 12 10 9 8 10 11 11 12 11 11 11 10 11 10 9 9 9 10 12 14 14 17
6 6 12 11 12 11 13 10 9 8 9 7 7 6 6 9 11 10 9 12 13 12 10 10 10 10 10 11 13 10 9 10 9 9 10 9 10 11 11 10 11 12 11 10 9 10 9 8 8 11 12 14
9 9 8 11 12 9 14 11 10 7 8 7 5 5 8 9 11 11 10 13 14 12 10 8 8 8 9 12 11 10 10 10 10 9 12 11 11 10 12 11 11 11 10 10 9 9 9 10 11 10 11 12
14 7 5 5 5 9 13 11 8 7 8 7 6 5 5 8 9 11 13 15 12 10 10 8 8 9 11 11 10 9 9 8 10 9 12 10 11 12 10 10 10 10 9 9 7 7 10 11 12 12 11 11
11 9 7 7 8 10 7 6 8 7 6 6 5 5 5 8 8 10 12 12 10 8 9 9 9 11 10 10 9 9 9 7 8 9 9 9 10 10 10 9 10 10 8 10 11 10 11 12 11 12 11 10
9 8 5 4 4 4 4 7 7 6 5 6 5 5 8 8 7 8 12 12 11 8 7 7 7 9 10 10 8 7 8 8 8 9 9 10 10 10 10 9 11 10 10 12 14 14 12 12 11 12 12 12
12 10 9 7 4 4 6 5 7 8 7 6 4 7 7 7 8 9 9 10 9 9 7 7 6 8 10 9 7 7 7 7 7 8 10 10 10 10 10 10 9 11 11 12 13 13 12 11 10 10 11 9
9 11 11 9 5 4 2 2 0 -0 3 5 5 7 7 6 6 9 10 10 9 8 8 7 7 8 9 8 7 6 7 9 10 8 8 9 8 9 9 9 10 13 14 10 8 8 10 9 10 11 13 14
7 9 9 7 6 2 -1 -1 2 3 2 4 4 6 6 6 7 9 10 9 9 8 8 7 5 7 8 7 6 6 7 9 11 9 8 7 5 7 8 9 10 14 11 7 7 7 8 9 9 12 18 22
8 5 8 3 2 -0 -0 -1 -1 -2 4 3 3 2 5 6 7 8 9 9 9 8 7 6 5 5 6 7 8 7 7 6 6 5 6 6 4 4 6 7 11 12 10 6 7 11 9 3 5 8 9 12
7 7 5 8 5 3 -1 -3 1 -1 -0 2 1 2 2 4 5 7 7 8 8 7 7 6 6 6 6 6 7 7 4 3 1 2 4 5 6 8 5 3 5 9 9 7 11 6 5 6 4 1 6 10
10 8 8 7 8 7 6 3 1 -1 -0 -0 2 3 2 1 3 5 6 7 7 7 6 6 6 6 6 6 7 6 3 1 1 3 4 4 6 3 2 2 4 6 6 8 13 9 4 8 9 10 9 7
10 9 5 4 4 3 2 2 1 -0 0 0 -3 -1 -1 1 1 3 5 6 6 6 7 6 6 8 8 7 7 7 4 1 1 2 4 3 5 4 4 3 3 -1 3 6 11 9 8 10 9 8 5 3
11 8 4 3 3 3 2 -0 -3 -3 -3 -3 -4 -1 -5 -2 -1 3 1 1 4 5 6 5 6 8 8 7 7 5 3 1 2 3 5 6 6 4 5 6 2 -2 -2 1 6 7 8 10 9 7 6 3